Stündliche Wetter Barnab

Heute, 28 Oktober, Mittwoch

Zeit Temperatur Niederschläge Wind Luftdruck Luftfeuchtigkeit
00:00 +6°C° 0 mm 1 m/S 615 mmHg 76%
01:00 +6°C° 0 mm 1 m/S 615 mmHg 75%
02:00 +6°C° 0 mm 1 m/S 615 mmHg 74%
03:00 +6°C° 0 mm 1 m/S 615 mmHg 73%
04:00 +6°C° 0 mm 1 m/S 615 mmHg 72%
05:00 +6°C° 0 mm 1 m/S 615 mmHg 70%
06:00 +6°C° 0 mm 1 m/S 615 mmHg 69%
07:00 +8°C° 0 mm 1 m/S 616 mmHg 63%
08:00 +10°C° 0 mm 1 m/S 617 mmHg 57%
09:00 +11°C° 0 mm 1 m/S 618 mmHg 51%
10:00 +12°C° 0 mm 2 m/S 618 mmHg 51%
11:00 +13°C° 0 mm 2 m/S 618 mmHg 51%
12:00 +14°C° 0 mm 2 m/S 618 mmHg 51%
13:00 +14°C° 0 mm 2 m/S 617 mmHg 53%
14:00 +13°C° 0 mm 2 m/S 617 mmHg 55%
15:00 +13°C° 0 mm 2 m/S 617 mmHg 57%
16:00 +10°C° 0 mm 2 m/S 616 mmHg 62%
17:00 +10°C° 0 mm 1 m/S 615 mmHg 67%
18:00 +8°C° 0 mm 1 m/S 614 mmHg 73%
19:00 +8°C° 0 mm 1 m/S 614 mmHg 71%
20:00 +7°C° 0 mm 1 m/S 614 mmHg 69%
21:00 +7°C° 0 mm 1 m/S 614 mmHg 66%
22:00 +7°C° 0 mm 1 m/S 614 mmHg 63%
23:00 +7°C° 0 mm 1 m/S 614 mmHg 60%

Morgen, 29 Oktober, Donnerstag

Zeit Temperatur Niederschläge Wind Luftdruck Luftfeuchtigkeit
00:00 +7°C° 0 mm 1 m/S 613 mmHg 57%
01:00 +7°C° 0 mm 1 m/S 613 mmHg 55%
02:00 +7°C° 0 mm 1 m/S 613 mmHg 53%
03:00 +7°C° 0 mm 1 m/S 613 mmHg 51%
04:00 +7°C° 0 mm 1 m/S 613 mmHg 50%
05:00 +7°C° 0 mm 1 m/S 613 mmHg 49%
06:00 +7°C° 0 mm 1 m/S 613 mmHg 48%
07:00 +9°C° 0 mm 1 m/S 614 mmHg 44%
08:00 +12°C° 0 mm 1 m/S 615 mmHg 41%
09:00 +14°C° 0 mm 1 m/S 616 mmHg 37%
10:00 +14°C° 0 mm 2 m/S 616 mmHg 38%
11:00 +15°C° 0 mm 2 m/S 616 mmHg 38%
12:00 +16°C° 0 mm 2 m/S 616 mmHg 39%
13:00 +16°C° 0 mm 2 m/S 615 mmHg 41%
14:00 +16°C° 0 mm 2 m/S 615 mmHg 44%
15:00 +15°C° 0 mm 2 m/S 615 mmHg 46%
16:00 +13°C° 0 mm 2 m/S 614 mmHg 52%
17:00 +11°C° 0 mm 1 m/S 613 mmHg 59%
18:00 +9°C° 0 mm 1 m/S 613 mmHg 65%
19:00 +9°C° 0 mm 1 m/S 612 mmHg 64%
20:00 +9°C° 0 mm 1 m/S 612 mmHg 62%
21:00 +9°C° 0 mm 1 m/S 612 mmHg 61%
22:00 +9°C° 0 mm 1 m/S 612 mmHg 60%
23:00 +9°C° 0 mm 1 m/S 612 mmHg 59%

übermorgen, 30 Oktober, Freitag

Zeit Temperatur Niederschläge Wind Luftdruck Luftfeuchtigkeit
00:00 +8°C° 0 mm 2 m/S 612 mmHg 59%
01:00 +8°C° 0 mm 2 m/S 612 mmHg 59%
02:00 +8°C° 0 mm 2 m/S 611 mmHg 60%
03:00 +8°C° 0 mm 2 m/S 611 mmHg 61%
04:00 +8°C° 0 mm 2 m/S 611 mmHg 61%
05:00 +8°C° 0 mm 2 m/S 611 mmHg 61%
06:00 +8°C° 0 mm 2 m/S 611 mmHg 61%
07:00 +10°C° 0 mm 2 m/S 612 mmHg 55%
08:00 +13°C° 0 mm 2 m/S 613 mmHg 50%
09:00 +14°C° 0 mm 3 m/S 614 mmHg 44%
10:00 +14°C° 0 mm 3 m/S 614 mmHg 41%
11:00 +16°C° 0 mm 3 m/S 614 mmHg 39%
12:00 +16°C° 0 mm 3 m/S 614 mmHg 37%
13:00 +16°C° 0 mm 3 m/S 614 mmHg 37%
14:00 +16°C° 0 mm 3 m/S 613 mmHg 37%
15:00 +16°C° 0 mm 3 m/S 613 mmHg 37%
16:00 +13°C° 0 mm 3 m/S 613 mmHg 41%
17:00 +12°C° 0 mm 2 m/S 612 mmHg 45%
18:00 +9°C° 0 mm 2 m/S 611 mmHg 49%
19:00 +9°C° 0 mm 2 m/S 612 mmHg 48%
20:00 +9°C° 0 mm 2 m/S 612 mmHg 46%
21:00 +9°C° 0 mm 2 m/S 612 mmHg 44%
22:00 +9°C° 0 mm 2 m/S 612 mmHg 46%
23:00 +9°C° 0 mm 2 m/S 611 mmHg 49%

31 Oktober, Samstag

Zeit Temperatur Niederschläge Wind Luftdruck Luftfeuchtigkeit
00:00 +9°C° 0 mm 2 m/S 611 mmHg 52%
01:00 +8°C° 0 mm 2 m/S 611 mmHg 55%
02:00 +8°C° 0 mm 2 m/S 611 mmHg 58%
03:00 +8°C° 0 mm 2 m/S 611 mmHg 61%
04:00 +7°C° 0 mm 2 m/S 611 mmHg 62%
05:00 +7°C° 0 mm 2 m/S 611 mmHg 64%
06:00 +7°C° 0 mm 2 m/S 611 mmHg 65%
07:00 +9°C° 0 mm 3 m/S 611 mmHg 60%
08:00 +11°C° 0 mm 3 m/S 612 mmHg 56%
09:00 +13°C° 0 mm 4 m/S 613 mmHg 51%
10:00 +13°C° 0 mm 4 m/S 613 mmHg 49%
11:00 +14°C° 0 mm 4 m/S 613 mmHg 46%
12:00 +14°C° 0 mm 4 m/S 613 mmHg 44%
13:00 +14°C° 0 mm 4 m/S 613 mmHg 45%
14:00 +14°C° 0 mm 4 m/S 613 mmHg 45%
15:00 +14°C° 0 mm 4 m/S 613 mmHg 45%
16:00 +12°C° 0 mm 3 m/S 613 mmHg 53%
17:00 +11°C° 0 mm 3 m/S 612 mmHg 60%
18:00 +9°C° 0 mm 2 m/S 612 mmHg 68%
19:00 +9°C° 0 mm 2 m/S 612 mmHg 71%
20:00 +8°C° 0 mm 2 m/S 612 mmHg 73%
21:00 +8°C° 0 mm 2 m/S 612 mmHg 76%
22:00 +8°C° 0 mm 2 m/S 612 mmHg 76%
23:00 +8°C° 0 mm 2 m/S 612 mmHg 76%

1 November, Sonntag

Zeit Temperatur Niederschläge Wind Luftdruck Luftfeuchtigkeit
00:00 +8°C° 0 mm 2 m/S 612 mmHg 75%
01:00 +8°C° 0 mm 2 m/S 613 mmHg 75%
02:00 +8°C° 0 mm 2 m/S 613 mmHg 74%
03:00 +8°C° 0 mm 2 m/S 613 mmHg 74%
04:00 +8°C° 0 mm 2 m/S 613 mmHg 73%
05:00 +8°C° 0 mm 2 m/S 613 mmHg 72%
06:00 +7°C° 0 mm 2 m/S 613 mmHg 72%
07:00 +9°C° 0 mm 2 m/S 614 mmHg 65%
08:00 +11°C° 0 mm 3 m/S 615 mmHg 59%
09:00 +12°C° 0 mm 3 m/S 615 mmHg 53%
10:00 +13°C° 0 mm 3 m/S 615 mmHg 51%
11:00 +14°C° 0 mm 4 m/S 615 mmHg 49%
12:00 +14°C° 0 mm 4 m/S 615 mmHg 46%
13:00 +14°C° 0 mm 4 m/S 615 mmHg 47%
14:00 +14°C° 0 mm 3 m/S 615 mmHg 47%
15:00 +14°C° 0 mm 3 m/S 615 mmHg 48%
16:00 +12°C° 0 mm 3 m/S 615 mmHg 53%
17:00 +12°C° 0 mm 2 m/S 614 mmHg 58%
18:00 +9°C° 0 mm 2 m/S 614 mmHg 64%
19:00 +9°C° 0 mm 2 m/S 614 mmHg 62%
20:00 +9°C° 0 mm 2 m/S 614 mmHg 60%
21:00 +10°C° 0 mm 1 m/S 614 mmHg 59%
22:00 +9°C° 0 mm 1 m/S 614 mmHg 59%
23:00 +9°C° 0 mm 1 m/S 614 mmHg 59%

2 November, Montag

Zeit Temperatur Niederschläge Wind Luftdruck Luftfeuchtigkeit
00:00 +9°C° 0 mm 1 m/S 614 mmHg 59%
01:00 +9°C° 0 mm 1 m/S 614 mmHg 59%
02:00 +9°C° 0 mm 1 m/S 614 mmHg 59%
03:00 +9°C° 0 mm 1 m/S 614 mmHg 59%
04:00 +9°C° 0 mm 1 m/S 614 mmHg 59%
05:00 +9°C° 0 mm 1 m/S 614 mmHg 59%
06:00 +8°C° 0 mm 2 m/S 614 mmHg 59%
07:00 +10°C° 0 mm 1 m/S 615 mmHg 55%
08:00 +12°C° 0 mm 1 m/S 616 mmHg 50%
09:00 +14°C° 0 mm 1 m/S 617 mmHg 45%
10:00 +15°C° 0 mm 2 m/S 617 mmHg 43%
11:00 +16°C° 0 mm 2 m/S 617 mmHg 40%
12:00 +17°C° 0 mm 2 m/S 618 mmHg 38%
13:00 +16°C° 0 mm 2 m/S 618 mmHg 39%
14:00 +16°C° 0 mm 2 m/S 617 mmHg 40%
15:00 +16°C° 0 mm 2 m/S 617 mmHg 42%
16:00 +14°C° 0 mm 1 m/S 617 mmHg 48%
17:00 +13°C° 0 mm 1 m/S 616 mmHg 54%
18:00 +11°C° 0 mm 1 m/S 616 mmHg 61%
19:00 +11°C° 0 mm 1 m/S 616 mmHg 60%
20:00 +10°C° 0 mm 1 m/S 615 mmHg 60%
21:00 +10°C° 0 mm 1 m/S 615 mmHg 59%
22:00 +10°C° 0 mm 1 m/S 615 mmHg 60%
23:00 +9°C° 0 mm 2 m/S 615 mmHg 60%
Mehr zeigen